Location: Ernez
(36.4595°N, 29.8755°E)
Time: 08:17:02
(UTC+00:00)

IRS-1C - Pass Details

Date: 13 November 2025
Orbit: 813 x 814 km, 99.0° (Epoch: 05 December)

Event Time Altitude Azimuth Distance (km) Brightness Sun altitude
Rises 15:42:52 0° 167° (SSE) 3,322 7.3 -10.3°
Reaches altitude 10° 15:45:11 10° 168° (SSE) 2,394 6.6 -10.7°
Maximum altitude 15:50:30 83° 256° (WSW) 825 4.2 -11.8°
Drops below altitude 10° 15:55:50 10° 345° (NNW) 2,409 6.6 -12.8°
Sets 15:58:11 0° 346° (NNW) 3,344 7.3 -13.3°
